Flag for Canada Weather past 2 weeks in Greater Sudbury, Ontario, Canada

Now
63 °F

Partly sunny.


Feels Like: 63 °F
Forecast: 48 / 68 °F
Wind: 13 mph from North

Location: Sudbury

Current Time: Jul 28, 2014 at 4:10:06 PM

Latest Report: Jul 28, 2014 at 3:00 PM


Visibility: 20 mi

Pressure: 29.91 "Hg

Humidity: 56%

Dew point: 46 °F

Location of Greater SudburyLocation

Historic Weather in Greater Sudbury — Graph

°F

Greater Sudbury temperature yesterday

Maximum temperature yesterday: 68 °F (at 3:00 PM)
Minimum temperature yesterday: 59 °F (at 11:00 PM)
Average temperature yesterday: 63 °F

Past Weeks' High & Low Weather Summary

 TemperatureHumidityPressure
High81 °F (Jul 22, 12:00 PM)100% (Jul 14, 6:00 AM)30.21 "Hg (Jul 14, 6:00 AM)
Low46 °F (Jul 14, 6:00 AM)41% (Jul 13, 6:00 PM)29.65 "Hg (Jul 13, 3:00 PM)
Average63 °F77%29.93 "Hg
* Reported Jul 13 2:00 PM — Jul 28 2:00 PM, Greater Sudbury, Weather by CustomWeather, © 2014

Note: Actual official high and low records may vary slightly from our data, if they occured in-between our weather recording intervals... More about our weather records

Advertising

Greater Sudbury weather history for previous 24 hours

 ConditionsComfort  
Time TempWeatherWind HumidityBarometerVisibility
2:00 PM
Jul 28
63 °FPartly sunny.13 mph56%29.90 "Hg20 mi
1:00 PM61 °FPartly sunny.10 mph59%29.91 "Hg20 mi
12:00 PM59 °FPartly sunny.17 mph63%29.91 "Hg20 mi
11:00 AM55 °FPartly sunny.15 mph63%29.91 "Hg20 mi
10:00 AM54 °FPartly sunny.12 mph72%29.90 "Hg20 mi
9:00 AM52 °FPartly sunny.21 mph72%29.91 "Hg20 mi
8:00 AM52 °FPartly sunny.17 mph77%29.89 "Hg20 mi
7:00 AM50 °FPartly sunny.14 mph76%29.89 "Hg20 mi
6:00 AM50 °FPartly cloudy.15 mph71%29.88 "Hg15 mi
5:00 AM50 °FPassing clouds.15 mph76%29.86 "Hg15 mi
4:00 AM52 °FPassing clouds.16 mph77%29.85 "Hg15 mi
3:00 AM52 °FPassing clouds.21 mph77%29.83 "Hg15 mi
2:00 AM54 °FPartly cloudy.14 mph77%29.84 "Hg12 mi
1:00 AM55 °FPartly cloudy.18 mph82%29.85 "Hg12 mi
12:00 AM57 °FOvercast.15 mph77%29.84 "Hg12 mi
11:00 PM
Jul 27
59 °FPassing clouds.13 mph72%29.82 "Hg15 mi
10:00 PM61 °FBroken clouds.10 mph68%29.80 "Hg15 mi
9:00 PM63 °FScattered clouds.13 mph64%29.75 "Hg20 mi
8:00 PM64 °FBroken clouds.8 mph64%29.75 "Hg20 mi
7:00 PM68 °FPartly sunny.10 mph64%29.74 "Hg20 mi
6:00 PM68 °FBroken clouds.9 mph64%29.74 "Hg20 mi
5:00 PM68 °FMore clouds than sun.7 mph69%29.74 "Hg20 mi
4:00 PM68 °FMostly cloudy.9 mph69%29.73 "Hg20 mi
Weather by CustomWeather, © 2014

See weather overviewHow to use our weather pages